#timestamp,LO_Frequency,Hit,StdDev 
1510027215.2,286046993.9,P
1510027235.1,286046991.3,P
1510027236.0,286046991.3,Y
1510027255.8,286046999.5,P
1510027275.6,286046997.1,N
1510027295.5,286047000.8,N
1510027315.3,286047002.8,N
1510027335.1,286047001.4,N
1510027355.9,286047000.3,N
1510027375.7,286047000.5,N
1510027395.5,286047001.3,N
1510027415.4,286046999.6,N
1510027435.2,286046995.0,N
1510027455.1,286046998.4,N
1510027456.0,286046998.4,N
1510027475.8,286047001.3,N
1510027495.6,286047001.4,N
1510027515.5,286047002.5,N
1510027535.3,286047000.0,N
1510027555.1,286047003.8,N
1510027575.9,286046999.7,N
1510027595.7,286047004.1,N
1510027615.5,286047005.5,N
1510027635.4,286047005.9,N
1510027655.2,286047005.6,N
1510027675.0,286047002.5,N
1510027676.0,286047002.5,N
1510027695.8,286046999.7,N
1510027715.6,286047002.6,N
1510027735.5,286047002.6,N
1510027755.3,286047003.9,N
1510027775.1,286047003.4,N
1510027795.9,286047005.7,N
1510027815.7,286047006.0,N
1510027835.5,286047007.1,N
1510027855.4,286047005.7,N
1510027875.2,286047007.4,N
1510027895.0,286047006.2,N
1510027895.9,286047006.2,N
1510027915.8,286047008.5,N
1510027935.6,286047006.3,N
1510027955.4,286047008.9,N
1510027975.3,286047010.8,Y
1510027995.1,286047009.1,P
1510028015.9,286047010.8,P
1510028035.7,286047009.5,P
1510028055.5,286047006.4,N
1510028075.4,286047007.8,Y
1510028095.2,286047002.3,P
1510028115.0,286047001.4,N
1510028116.0,286047001.4,N
1510028135.8,286047000.7,N
1510028155.6,286046999.3,N
1510028175.5,286047002.6,N
1510028195.3,286047003.8,N
1510028215.1,286047003.7,N
1510028235.9,286047005.5,N
1510028255.7,286047007.6,Y
1510028275.5,286047003.6,P
1510028295.4,286047000.7,N
1510028315.2,286046999.3,N
1510028335.1,286046993.3,Y
1510028336.0,286046993.3,P
1510028355.8,286046994.7,N
1510028375.6,286046995.2,N
1510028395.5,286046995.1,N
1510028415.3,286046995.5,N
1510028435.1,286046999.2,N
1510028455.9,286046998.9,N
1510028475.7,286047000.0,N
1510028495.5,286047000.7,N
1510028515.4,286047000.8,N
1510028535.2,286047002.5,N
1510028555.0,286047001.9,N
1510028556.0,286047001.9,N
1510028575.8,286047002.7,N
1510028595.6,286047001.9,N
1510028615.5,286047004.4,N
1510028635.3,286047007.1,N
1510028655.1,286047004.2,N
1510028675.9,286047003.0,N
1510028695.7,286047005.2,N
1510028715.5,286047008.3,N
1510028735.4,286047007.0,N
1510028755.2,286047004.2,N
1510028775.0,286047000.2,N
1510028775.9,286047000.2,N
1510028795.8,286047001.2,N
1510028815.6,286046998.3,N
1510028835.4,286047000.5,N
1510028855.3,286047004.2,N
1510028875.1,286047006.2,N
1510028895.9,286047006.1,N
1510028915.7,286047010.3,N
1510028935.5,286047009.4,N
1510028955.4,286047014.5,Y
1510028975.2,286047007.9,P
1510028995.0,286047005.6,N
1510028996.0,286047005.6,N
1510029015.8,286047003.2,N
1510029035.6,286047001.4,N
1510029055.5,286047001.0,N
1510029075.3,286046997.3,N
1510029095.1,286046992.2,N
1510029115.9,286046985.6,Y
1510029135.7,286046985.4,P
1510029155.6,286046989.6,N
1510029175.4,286046986.2,N
1510029195.2,286046986.0,N
1510029215.1,286046984.4,N
1510029216.0,286046984.4,N
1510029235.8,286046983.3,N
1510029255.7,286046984.3,N
1510029275.5,286046982.9,Y
1510029295.3,286046995.4,P
1510029315.2,286046998.7,N
1510029335.0,286046995.1,N
1510029335.9,286046995.1,N
1510029355.8,286046997.5,N
1510029375.6,286046999.5,N
1510029395.4,286047002.0,N
1510029415.3,286047001.7,N
1510029435.1,286047005.9,N
1510029455.9,286047005.4,N
1510029475.7,286047004.8,N
1510029495.5,286047002.9,N
1510029515.4,286047004.6,N
1510029535.2,286047003.4,N
1510029555.0,286047003.7,N
1510029555.9,286047003.7,N
1510029575.8,286047005.0,N
1510029595.6,286047005.7,N
1510029615.5,286047001.8,N
1510029635.3,286047006.4,N
1510029655.1,286047002.9,N
1510029675.9,286047000.9,N
1510029695.7,286047001.2,N
1510029715.5,286046999.8,N
1510029735.4,286047001.8,N
1510029755.2,286047002.8,N
1510029775.0,286047002.7,N
1510029776.0,286047002.7,N
1510029795.8,286046996.6,N
1510029815.6,286046999.7,N
1510029835.5,286047000.4,N
1510029855.3,286046999.7,N
1510029875.1,286047006.0,N
1510029895.9,286047007.4,N
1510029915.7,286047010.1,Y
1510029935.5,286047008.6,P
1510029955.4,286047011.7,P
1510029975.2,286047011.3,N
1510029995.1,286047013.1,Y
1510029996.0,286047013.1,P
1510030015.8,286047003.3,N
1510030035.6,286047005.7,N
1510030055.5,286047004.6,N
1510030075.3,286047007.1,N
1510030095.1,286047004.0,N
1510030115.9,286047004.4,N
1510030135.7,286047001.3,N
1510030155.5,286047000.5,N
1510030175.4,286046996.8,N
1510030195.2,286046998.1,N
1510030215.0,286047000.3,N
1510030216.0,286047000.3,N
1510030235.8,286047002.2,N
1510030255.6,286046999.4,N
1510030275.5,286046997.1,N
1510030295.3,286046997.5,N
1510030315.1,286046991.9,N
1510030335.9,286046990.1,N
1510030355.7,286046988.5,N
1510030375.5,286046991.0,N
1510030395.4,286046991.5,N
1510030415.2,286046990.7,N
1510030435.1,286046990.3,N
1510030436.0,286046990.3,N
1510030455.8,286046992.0,N
1510030475.6,286046992.3,N
1510030495.5,286046995.1,N
1510030515.3,286046995.6,N
1510030535.1,286046995.1,N
1510030555.9,286046996.3,N
1510030575.7,286046996.2,N
1510030595.5,286046992.0,N
1510030615.4,286046990.6,N
1510030635.2,286046991.8,N
1510030655.0,286046992.4,N
1510030656.0,286046992.4,N
1510030675.8,286046992.0,N
1510030695.6,286046995.6,N
1510030715.5,286046997.7,N
1510030735.3,286046993.3,N
1510030755.1,286046994.5,N
1510030775.9,286046996.1,N
1510030795.7,286046994.1,N
